This demonstration page uses our WeatherBlox Daily Observations layout. Learn more.

40.92945, -100.16068

Hourly Observations for March 29, 2018

Temp ( °F °C ) Dew Point ( °F °C ) Humidity (%) Winds ( mph kmh ) Pressure ( in mb ) Visibility ( mi km ) Precip ( " mm )
12:15 am 00:15 Clear 36 2.1 31 -0.5 83 83 NE 5 7 30.12 1020 10 16.0934 0 0
12:35 am 00:35 Clear 35 1.7 31 -0.6 85 85 NNE 3 6 30.12 1020 10 16.0934 0 0
12:55 am 00:55 Clear 33 0.8 30 -1.1 87 87 N 5 7 30.15 1021 10 16.0934 0 0
1:15 am 01:15 Clear 33 0.4 29 -1.5 87 87 N 6 9 30.15 1021 10 16.0934 0 0
1:35 am 01:35 Clear 32 -0.1 28 -2 87 87 N 5 7 30.15 1021 10 16.0934 0 0
1:55 am 01:55 Clear 31 -0.5 28 -2.2 88 88 N 6 9 30.15 1021 10 16.0934 0 0
2:15 am 02:15 Clear 31 -0.5 29 -1.8 91 91 N 8 13 30.15 1021 10 16.0934 0 0
2:35 am 02:35 Clear 30 -1.1 28 -2.5 90 90 N 9 15 30.15 1021 10 16.0934 0 0
2:55 am 02:55 Clear 31 -0.8 28 -2.1 91 91 N 9 15 30.15 1021 10 16.0934 0 0
3:15 am 03:15 Clear 31 -0.5 28 -2 90 90 NNE 10 17 30.15 1021 10 16.0934 0 0
3:35 am 03:35 Clear 31 -0.6 28 -2 90 90 NNE 10 17 30.15 1021 10 16.0934 0 0
3:55 am 03:55 Mostly Cloudy 32 0 30 -1 93 93 NNE 16 26 30.15 1021 7 11.26538 0 0
4:15 am 04:15 Cloudy 33 0.3 31 -0.7 93 93 NNE 10 17 30.15 1021 7 11.26538 0 0
4:35 am 04:35 Cloudy 33 0.3 30 -1.2 90 90 NNE 10 17 30.15 1021 10 16.0934 0 0
4:55 am 04:55 Cloudy 32 0 29 -1.5 90 90 N 15 24 30.15 1021 10 16.0934 0 0
5:15 am 05:15 Cloudy 31 -0.6 28 -2.4 88 88 N 12 19 30.15 1021 10 16.0934 0 0
5:35 am 05:35 Cloudy 31 -0.5 28 -2.1 89 89 N 8 13 30.15 1021 10 16.0934 0 0
5:55 am 05:55 Cloudy 30 -1 28 -2.5 90 90 N 8 13 30.15 1021 10 16.0934 0 0
6:15 am 06:15 Cloudy 31 -0.8 28 -2.2 90 90 N 10 17 30.15 1021 10 16.0934 0 0
6:35 am 06:35 Cloudy 30 -1 28 -2.5 90 90 N 12 19 30.15 1021 10 16.0934 0 0
6:55 am 06:55 Cloudy 30 -1.3 27 -2.8 90 90 N 7 11 30.15 1021 10 16.0934 0 0
7:15 am 07:15 Cloudy 29 -1.5 27 -3 90 90 N 8 13 30.15 1021 10 16.0934 0 0
7:35 am 07:35 Mostly Cloudy 28 -2 26 -3.5 90 90 N 5 7 30.18 1022 10 16.0934 0 0
7:55 am 07:55 Partly Cloudy 27 -2.8 25 -4.1 91 91 Calm 30.18 1022 7 11.26538 0 0
8:15 am 08:15 Sunny 26 -3.1 24 -4.3 92 92 Calm 30.21 1023 7 11.26538 0 0
8:35 am 08:35 Sunny 27 -2.6 26 -3.6 93 93 N 3 6 30.21 1023 7 11.26538 0 0
8:55 am 08:55 Sunny 30 -1.3 26 -3.6 85 85 N 6 9 30.18 1022 10 16.0934 0 0
9:15 am 09:15 Partly Cloudy 30 -1.1 25 -3.9 82 82 NE 8 13 30.18 1022 10 16.0934 0 0
9:35 am 09:35 Sunny 31 -0.6 25 -4 78 78 NE 8 13 30.18 1022 10 16.0934 0 0
9:55 am 09:55 Sunny 32 -0.2 26 -3.6 78 78 NE 6 9 30.18 1022 10 16.0934 0 0
10:15 am 10:15 Sunny 32 0.1 24 -4.4 72 72 NE 7 11 30.18 1022 10 16.0934 0 0
10:35 am 10:35 Sunny 33 0.7 23 -4.8 67 67 NE 7 11 30.18 1022 10 16.0934 0 0
10:55 am 10:55 Sunny 34 1.2 23 -5.1 63 63 NNE 10 17 30.18 1022 10 16.0934 0 0
11:15 am 11:15 Sunny 36 2.2 23 -4.8 60 60 NE 7 11 30.15 1021 10 16.0934 0 0
11:35 am 11:35 Partly Cloudy 37 2.8 22 -5.5 55 55 NE 6 9 30.18 1022 10 16.0934 0 0
11:55 am 11:55 Mostly Cloudy 38 3.4 24 -4.7 56 56 NE 9 15 30.15 1021 10 16.0934 0 0
12:15 pm 12:15 Cloudy 40 4.7 23 -5 50 50 E 8 13 30.12 1020 10 16.0934 0 0
12:35 pm 12:35 Cloudy 42 5.5 22 -5.6 45 45 ENE 5 7 30.12 1020 10 16.0934 0 0
12:55 pm 12:55 Mostly Cloudy 42 5.4 21 -6.2 43 43 ENE 3 6 30.12 1020 10 16.0934 0 0
1:15 pm 13:15 Mostly Cloudy 42 5.5 20 -6.6 42 42 NE 7 11 30.12 1020 10 16.0934 0 0
1:35 pm 13:35 Cloudy 43 6 21 -6.3 41 41 Calm 30.12 1020 10 16.0934 0 0
1:55 pm 13:55 Cloudy 43 6 21 -6.1 42 42 ENE 6 9 30.12 1020 10 16.0934 0 0
2:15 pm 14:15 Cloudy 44 6.5 20 -6.8 38 38 ENE 6 9 30.12 1020 10 16.0934 0 0
2:35 pm 14:35 Cloudy 43 6.2 18 -7.6 37 37 NE 5 7 30.12 1020 10 16.0934 0 0
2:55 pm 14:55 Cloudy 45 7 20 -6.7 37 37 N 7 11 30.12 1020 10 16.0934 0 0
3:15 pm 15:15 Cloudy 46 7.5 20 -6.4 37 37 NNE 8 13 30.09 1019 10 16.0934 0 0
3:35 pm 15:35 Cloudy 45 7.1 20 -6.4 38 38 N 13 20 30.12 1020 10 16.0934 0 0
3:55 pm 15:55 Cloudy 45 7 21 -6.1 39 39 N 10 17 30.12 1020 10 16.0934 0 0
4:15 pm 16:15 Cloudy 44 6.8 19 -7 37 37 N 8 13 30.12 1020 10 16.0934 0 0
4:35 pm 16:35 Cloudy 44 6.8 20 -6.6 38 38 NNE 10 17 30.15 1021 10 16.0934 0 0
4:55 pm 16:55 Cloudy 44 6.9 20 -6.7 38 38 NNE 10 17 30.15 1021 10 16.0934 0 0
5:15 pm 17:15 Cloudy 44 6.5 22 -5.6 42 42 NNE 14 22 30.15 1021 10 16.0934 0 0
5:35 pm 17:35 Cloudy 45 7 22 -5.8 40 40 NNE 10 17 30.15 1021 10 16.0934 0 0
5:55 pm 17:55 Cloudy 44 6.5 21 -6.1 40 40 NE 10 17 30.15 1021 10 16.0934 0 0
6:15 pm 18:15 Cloudy 43 6.2 21 -6.3 41 41 NE 9 15 30.15 1021 10 16.0934 0 0
6:35 pm 18:35 Cloudy 43 6.1 21 -6.3 41 41 NNE 7 11 30.18 1022 10 16.0934 0 0
6:55 pm 18:55 Cloudy 42 5.5 23 -5.2 46 46 NNE 13 20 30.18 1022 10 16.0934 0 0
7:15 pm 19:15 Cloudy 41 5 22 -5.5 47 47 NNE 10 17 30.18 1022 10 16.0934 0 0
7:35 pm 19:35 Cloudy 41 4.8 22 -5.7 47 47 NE 10 17 30.21 1023 10 16.0934 0 0
7:55 pm 19:55 Cloudy 40 4.4 22 -5.6 49 49 ENE 10 17 30.21 1023 10 16.0934 0 0
8:15 pm 20:15 Partly Cloudy 39 3.9 23 -5.2 52 52 NE 8 13 30.24 1024 10 16.0934 0 0
8:35 pm 20:35 Partly Cloudy 38 3.1 24 -4.6 57 57 NE 7 11 30.24 1024 10 16.0934 0 0
8:55 pm 20:55 Clear 35 1.7 24 -4.3 65 65 N 7 11 30.3 1026 10 16.0934 0 0
9:15 pm 21:15 Partly Cloudy 33 0.8 26 -3.4 74 74 N 6 9 30.3 1026 10 16.0934 0 0
9:35 pm 21:35 Cloudy 33 0.7 26 -3.1 76 76 N 6 9 30.33 1027 10 16.0934 0 0
9:55 pm 21:55 Cloudy 34 1 27 -2.7 77 77 N 6 9 30.33 1027 10 16.0934 0 0
10:15 pm 22:15 Cloudy 35 1.5 28 -2.5 75 75 N 5 7 30.33 1027 10 16.0934 0 0
10:35 pm 22:35 Cloudy 35 1.5 28 -2.5 75 75 NNE 3 6 30.33 1027 10 16.0934 0 0
10:55 pm 22:55 Cloudy 34 1 27 -2.8 76 76 NE 3 6 30.33 1027 10 16.0934 0 0
11:15 pm 23:15 Partly Cloudy 33 0.3 26 -3.1 78 78 ENE 3 6 30.33 1027 10 16.0934 0 0
11:35 pm 23:35 Clear 32 0 26 -3.3 79 79 Calm 30.33 1027 10 16.0934 0 0
11:55 pm 23:55 Clear 30 -0.9 25 -3.8 81 81 Calm 30.36 1028 10 16.0934 0 0

Powered by AerisWeather